Temp
62 62 62 61 61 62 63 63 63 63 63 64 64 63 64 64 64 75 87 93 91 82 84 96 96 92 90 88 88 85 78 73 74 74 78 82 79 83 84 80 81 81 81 83 82
61 61 61 60 60 60 61 62 63 63 63 63 63 63 64 64 75 84 90 83 82 84 95 92 91 89 90 87 87 84 76 76 83 82 81 82 81 81 80 78 77 79 81 81 82
61 61 61 60 60 60 60 61 62 62 62 63 63 64 64 66 83 89 83 83 83 86 94 92 90 89 87 88 86 82 77 82 84 86 86 82 81 83 80 77 82 77 77 79 80
61 61 61 60 60 60 60 60 61 62 62 62 63 64 64 74 76 91 82 81 82 92 94 92 92 87 84 84 86 82 85 86 87 86 84 82 84 81 82 84 87 85 81 81 80
61 61 61 60 60 60 60 59 60 61 61 63 64 65 74 81 84 92 84 86 93 94 91 90 89 86 83 84 86 83 86 87 88 86 85 85 82 83 81 87 86 84 81 81 82
61 61 60 60 60 60 59 59 60 61 61 63 64 65 77 77 94 92 91 93 95 94 92 92 90 89 85 84 84 86 84 87 88 87 87 84 83 83 84 85 83 81 81 83 83
61 60 60 60 60 60 59 59 59 60 61 63 65 70 76 84 93 93 92 94 93 94 92 93 93 90 88 84 86 86 82 87 88 86 85 86 80 79 87 85 82 82 82 83 83
60 60 60 60 60 59 58 58 59 61 63 65 66 72 78 91 92 93 94 96 94 93 93 93 92 90 87 87 85 80 80 76 84 83 84 86 76 85 86 82 81 82 82 81 83
59 60 59 59 59 58 57 58 60 63 65 66 71 75 80 89 90 94 95 94 95 94 93 95 92 84 86 82 81 77 73 73 79 84 82 83 80 83 83 83 81 81 83 82 83
59 59 59 58 58 57 57 58 62 65 68 72 75 74 84 84 89 91 93 94 92 91 91 90 86 85 82 82 69 71 73 74 72 83 81 80 80 87 82 82 81 82 82 82 83
59 58 58 58 57 56 60 70 74 73 71 77 78 77 81 88 86 90 94 92 91 89 82 80 82 78 78 78 78 76 73 71 76 81 79 79 79 84 86 82 82 80 82 83 84
59 58 57 57 57 56 58 73 75 77 73 75 75 77 81 84 83 88 94 87 84 79 80 81 77 80 79 78 75 73 72 75 79 80 79 79 80 84 82 83 83 83 82 83 86
58 57 57 56 56 58 66 74 77 78 73 75 77 78 83 84 83 86 92 85 81 78 77 75 78 79 79 77 77 75 75 75 75 79 79 78 78 77 83 82 84 84 85 87 86
58 57 56 56 59 66 71 75 75 77 71 73 76 83 83 84 82 89 90 88 81 78 76 77 80 78 79 78 79 76 79 77 76 75 71 76 69 75 77 80 82 85 85 87 87
57 57 55 55 64 69 75 74 74 77 59 75 78 86 83 84 85 84 89 88 79 78 78 76 77 77 77 79 80 79 80 76 75 74 73 73 71 78 76 78 79 82 84 87 89
56 55 55 55 57 71 72 74 78 69 58 72 79 78 79 81 82 84 85 89 84 79 78 79 82 81 82 82 81 80 78 74 72 72 69 69 69 75 73 72 75 80 83 84 87
55 53 55 63 75 71 73 78 68 64 74 71 74 78 77 76 79 81 79 79 76 70 71 76 78 82 82 78 80 79 77 69 66 67 66 70 68 74 76 78 77 77 81 82 83
53 53 55 61 66 68 77 75 60 69 71 78 76 76 75 77 77 77 75 74 75 76 73 70 69 78 81 80 79 75 79 70 56 61 66 69 68 75 78 81 81 80 80 79 81
52 56 61 68 65 68 78 65 66 69 75 74 76 73 73 76 77 76 75 76 80 80 71 69 71 81 81 81 80 74 74 75 68 65 65 69 71 79 79 80 79 79 79 79 82
60 67 72 69 68 75 75 57 68 73 76 76 71 74 71 74 75 76 73 77 77 79 86 76 69 77 80 81 81 80 77 72 71 59 57 66 65 72 72 76 77 77 78 80 83
66 74 73 72 72 77 67 67 70 78 77 75 74 73 74 72 74 73 73 76 79 76 81 79 74 74 77 74 74 76 74 68 71 67 62 60 68 74 74 75 75 77 77 79 83
70 70 74 74 73 63 69 69 63 77 79 78 78 77 75 73 71 72 72 74 77 79 74 78 77 70 71 75 74 75 73 73 68 62 63 64 66 75 75 76 77 78 76 79 79
69 70 76 76 68 68 68 71 74 76 76 76 76 77 74 72 69 71 73 78 77 77 75 76 71 65 66 73 75 73 72 71 71 70 62 62 67 74 75 75 78 77 78 77 77
69 68 73 72 68 70 68 69 71 77 75 74 74 77 74 71 71 70 73 77 76 75 67 75 72 70 67 68 72 68 70 70 72 66 66 66 69 74 72 72 74 76 76 76 76
66 66 66 67 69 69 71 68 69 71 75 75 74 72 73 70 70 69 71 75 77 72 74 78 70 68 69 69 69 70 70 69 68 70 65 69 66 71 70 67 69 72 72 73 74
66 66 66 65 65 68 61 69 69 70 72 72 72 71 72 71 73 70 72 72 72 77 73 73 67 67 67 69 68 67 70 70 69 68 67 67 66 68 68 69 68 68 70 70 71
62 64 65 56 65 68 68 69 70 72 73 75 73 73 72 72 75 75 75 73 72 70 70 70 68 65 62 63 64 61 67 69 68 66 67 64 68 67 65 66 66 67 68 68 70
MSLP
1016.40 1016.20 1016.04 1015.87 1015.66 1015.29 1014.94 1014.67 1014.35 1013.97 1013.68 1013.39 1013.02 1012.65 1012.36 1011.90 1011.02 1010.69 1009.01 1007.33 1007.13 1007.16 1007.13 1006.64 1006.33 1006.57 1006.70 1006.62 1006.73 1006.98 1006.82 1006.69 1006.74 1006.90 1006.74 1007.34 1007.61 1008.15 1008.38 1008.68 1009.15 1009.52 1009.81 1010.29 1011.58
1016.26 1016.09 1015.97 1015.80 1015.58 1015.35 1014.99 1014.64 1014.36 1013.98 1013.61 1013.28 1012.95 1012.62 1012.24 1011.80 1010.81 1009.20 1007.46 1007.06 1007.03 1007.02 1006.82 1006.74 1006.45 1006.52 1006.36 1006.55 1006.75 1006.66 1006.68 1006.37 1006.38 1006.57 1006.45 1007.02 1007.39 1007.72 1008.21 1008.46 1009.06 1009.58 1010.30 1010.99 1011.66
1016.12 1015.97 1015.84 1015.68 1015.47 1015.22 1014.94 1014.63 1014.29 1013.95 1013.59 1013.22 1012.84 1012.47 1012.01 1011.51 1010.07 1008.23 1007.44 1007.19 1007.07 1007.12 1007.05 1006.92 1006.73 1006.51 1006.26 1006.47 1006.56 1006.55 1006.35 1006.22 1005.99 1006.16 1006.39 1006.93 1007.39 1007.67 1007.64 1007.69 1007.96 1008.74 1010.06 1010.91 1011.56
1015.94 1015.78 1015.63 1015.52 1015.32 1015.10 1014.85 1014.58 1014.21 1013.90 1013.57 1013.19 1012.73 1012.22 1011.72 1011.00 1009.46 1007.90 1007.63 1007.32 1007.09 1007.03 1007.03 1006.86 1006.50 1006.09 1006.21 1006.17 1006.41 1006.22 1005.91 1005.79 1005.88 1005.91 1006.19 1006.58 1006.99 1007.10 1007.26 1007.15 1007.43 1008.24 1009.46 1010.30 1010.88
1015.77 1015.58 1015.39 1015.26 1015.11 1014.91 1014.73 1014.48 1014.20 1013.82 1013.48 1013.09 1012.65 1012.11 1011.28 1010.19 1008.35 1007.72 1007.60 1007.31 1007.09 1007.03 1006.97 1006.66 1006.42 1006.47 1006.28 1006.36 1006.23 1006.13 1005.76 1005.69 1005.61 1006.03 1006.12 1006.41 1006.49 1006.67 1006.70 1007.21 1007.70 1008.45 1009.33 1009.92 1010.34
1015.51 1015.32 1015.16 1015.02 1014.86 1014.68 1014.53 1014.32 1014.05 1013.70 1013.37 1012.97 1012.57 1012.11 1011.21 1009.25 1007.39 1007.55 1007.52 1007.25 1006.95 1006.83 1006.79 1006.61 1006.66 1006.71 1006.58 1006.48 1006.40 1006.35 1006.09 1005.53 1005.36 1005.61 1005.87 1006.05 1006.20 1006.59 1006.40 1007.07 1007.96 1008.74 1009.00 1009.39 1009.78
1015.26 1015.03 1014.86 1014.71 1014.56 1014.39 1014.26 1014.08 1013.82 1013.51 1013.22 1012.87 1012.56 1012.09 1010.75 1008.15 1007.28 1007.30 1007.26 1006.95 1006.95 1006.84 1006.59 1006.72 1006.81 1006.69 1006.57 1006.44 1006.74 1006.38 1006.03 1005.48 1005.14 1005.48 1005.60 1005.84 1005.97 1005.82 1005.98 1006.74 1007.51 1008.31 1008.97 1009.21 1009.45
1014.97 1014.76 1014.59 1014.40 1014.25 1014.13 1014.05 1013.86 1013.55 1013.26 1013.00 1012.73 1012.53 1011.92 1009.57 1007.38 1007.22 1006.99 1006.87 1006.72 1006.86 1006.93 1006.79 1006.82 1006.88 1006.73 1006.68 1006.88 1006.71 1006.54 1006.44 1005.88 1005.53 1005.64 1005.70 1005.76 1005.14 1005.25 1005.82 1006.45 1006.93 1007.67 1008.29 1008.95 1009.11
1014.74 1014.47 1014.32 1014.14 1014.02 1013.94 1013.85 1013.56 1013.20 1012.90 1012.73 1012.64 1012.38 1011.40 1008.68 1007.27 1007.14 1006.77 1006.63 1006.47 1006.49 1006.76 1006.91 1006.83 1006.82 1007.12 1007.05 1006.85 1006.72 1007.08 1006.59 1006.31 1005.75 1005.64 1005.81 1005.63 1004.83 1005.17 1005.68 1006.19 1006.52 1007.06 1007.64 1008.20 1008.82
1014.56 1014.29 1014.05 1013.91 1013.83 1013.76 1013.53 1013.26 1012.84 1012.62 1012.56 1012.38 1011.81 1011.17 1008.41 1007.62 1007.15 1006.90 1006.80 1006.75 1006.61 1006.73 1006.61 1006.95 1007.25 1007.21 1007.44 1006.96 1007.14 1007.22 1006.79 1006.66 1006.32 1005.74 1005.66 1005.58 1004.84 1004.62 1005.61 1005.90 1005.88 1006.44 1007.02 1007.61 1008.07
1014.42 1014.09 1013.87 1013.78 1013.70 1013.61 1013.06 1012.67 1012.93 1012.55 1011.87 1010.57 1010.20 1009.36 1008.28 1007.68 1007.57 1006.88 1006.74 1006.74 1006.73 1006.57 1006.94 1007.68 1007.33 1007.27 1007.59 1007.56 1007.67 1007.51 1007.23 1006.88 1006.26 1005.87 1005.69 1005.10 1004.82 1004.26 1004.86 1005.26 1005.28 1006.06 1006.63 1006.96 1007.09
1014.21 1013.91 1013.78 1013.61 1013.59 1013.53 1013.38 1012.00 1011.18 1010.96 1010.49 1009.82 1009.65 1009.05 1008.39 1008.04 1007.27 1006.76 1006.68 1006.62 1006.64 1006.94 1007.55 1007.60 1007.38 1007.63 1007.74 1007.57 1007.64 1007.51 1007.12 1006.62 1006.11 1006.00 1005.79 1005.03 1004.24 1004.13 1004.75 1004.72 1004.92 1005.41 1005.94 1006.06 1006.76
1014.09 1013.81 1013.62 1013.56 1013.44 1013.40 1012.48 1011.19 1010.76 1010.57 1010.03 1009.27 1008.86 1008.32 1007.71 1007.71 1006.91 1006.56 1006.59 1006.66 1006.82 1007.20 1007.50 1007.57 1007.59 1007.68 1007.37 1007.37 1007.11 1007.02 1006.80 1006.49 1006.32 1005.96 1005.80 1005.27 1004.32 1004.50 1004.39 1004.59 1004.65 1004.88 1005.25 1005.42 1005.82
1013.91 1013.62 1013.53 1013.38 1013.79 1012.57 1011.57 1010.75 1010.72 1010.59 1009.56 1008.78 1008.12 1007.24 1007.46 1007.10 1006.78 1006.48 1006.49 1006.51 1007.05 1007.34 1007.83 1007.70 1007.55 1007.33 1007.06 1006.73 1006.71 1006.43 1006.55 1006.59 1006.44 1006.17 1005.77 1005.92 1004.85 1004.75 1004.88 1004.63 1004.71 1004.84 1005.01 1005.09 1005.18
1013.76 1013.49 1013.38 1013.42 1012.75 1011.93 1010.90 1010.62 1010.49 1010.20 1008.49 1007.87 1007.25 1006.99 1006.93 1006.71 1006.52 1006.73 1006.68 1006.50 1006.82 1007.26 1007.76 1007.33 1007.16 1007.01 1006.76 1006.35 1006.51 1006.23 1006.49 1006.61 1006.60 1006.31 1006.15 1005.93 1005.53 1004.96 1005.19 1004.77 1004.92 1005.02 1005.03 1004.99 1004.92
1013.49 1013.28 1013.29 1013.26 1012.80 1010.89 1010.60 1010.35 1010.14 1009.13 1007.57 1006.98 1006.63 1006.62 1006.56 1006.54 1006.37 1006.57 1006.45 1006.52 1007.17 1007.21 1007.35 1007.04 1007.06 1006.92 1006.33 1006.17 1006.28 1006.45 1006.53 1006.74 1006.88 1006.53 1006.05 1006.56 1006.49 1005.10 1005.77 1006.25 1005.69 1005.52 1005.28 1005.19 1005.02
1013.03 1012.72 1013.03 1012.19 1011.14 1010.66 1010.47 1009.93 1009.14 1007.60 1007.05 1006.52 1006.10 1006.21 1006.17 1006.28 1006.28 1006.31 1006.43 1006.67 1006.85 1007.08 1006.90 1006.76 1006.45 1006.27 1006.25 1006.15 1006.31 1006.22 1005.98 1006.01 1006.18 1006.23 1006.43 1006.96 1006.75 1005.86 1006.25 1006.46 1006.56 1006.14 1005.79 1005.69 1005.49
1012.73 1012.46 1012.33 1011.61 1011.08 1010.80 1010.07 1009.36 1008.09 1007.04 1006.17 1005.77 1005.65 1005.90 1005.85 1006.00 1006.18 1006.33 1006.51 1006.77 1007.17 1007.07 1006.86 1006.48 1006.25 1006.08 1006.03 1005.79 1005.51 1006.06 1005.87 1006.10 1006.33 1006.60 1006.71 1007.06 1006.35 1006.08 1006.51 1006.58 1006.57 1006.61 1006.47 1006.40 1006.10
1012.67 1012.47 1011.83 1010.72 1010.95 1010.94 1009.65 1008.67 1007.60 1006.76 1006.06 1005.52 1005.49 1005.39 1005.64 1005.82 1005.90 1006.23 1006.36 1006.25 1006.28 1006.63 1006.56 1006.47 1006.09 1006.00 1005.96 1005.90 1006.07 1006.39 1006.55 1007.04 1006.86 1007.81 1007.30 1006.88 1006.69 1006.21 1006.55 1006.55 1006.70 1006.73 1006.71 1006.57 1006.22
1011.97 1011.28 1010.74 1010.38 1010.57 1010.31 1009.25 1008.63 1007.60 1006.84 1006.06 1005.60 1005.05 1005.13 1005.20 1005.64 1005.92 1006.07 1006.24 1006.15 1006.14 1006.31 1006.13 1006.46 1006.30 1006.24 1006.07 1006.25 1006.41 1006.16 1007.07 1007.24 1007.10 1007.08 1006.98 1006.89 1006.80 1006.17 1006.70 1006.76 1007.10 1007.24 1007.18 1007.03 1006.88
1011.28 1010.46 1010.50 1010.44 1010.51 1009.48 1008.96 1008.35 1007.45 1006.50 1006.16 1005.43 1004.99 1005.04 1005.29 1005.64 1005.94 1006.12 1006.37 1006.51 1006.38 1006.52 1006.56 1006.50 1006.65 1006.62 1006.50 1006.69 1006.75 1007.01 1007.09 1007.72 1007.73 1007.87 1007.42 1007.16 1006.82 1007.50 1007.49 1007.76 1007.97 1008.03 1008.04 1007.88 1007.76
1010.81 1010.18 1010.37 1010.36 1009.98 1010.07 1008.96 1008.27 1007.51 1006.35 1005.78 1005.34 1005.07 1004.95 1005.36 1005.95 1006.22 1006.37 1006.42 1006.71 1006.93 1006.75 1006.64 1006.78 1006.65 1006.58 1006.96 1007.61 1007.78 1007.45 1007.41 1007.53 1007.36 1008.01 1008.48 1008.34 1007.79 1008.23 1008.29 1008.44 1008.58 1008.52 1008.77 1008.52 1008.70
1011.00 1010.51 1010.12 1009.80 1009.54 1009.40 1008.82 1008.04 1007.34 1006.42 1005.96 1005.55 1005.35 1005.40 1005.79 1006.22 1006.70 1006.77 1006.82 1007.03 1007.00 1006.91 1006.97 1006.88 1006.95 1007.04 1007.52 1007.95 1007.90 1007.84 1008.07 1008.23 1008.11 1008.27 1008.25 1008.31 1007.96 1008.74 1008.92 1009.01 1009.04 1009.05 1009.03 1009.21 1009.17
1011.15 1010.48 1010.14 1009.88 1009.82 1009.12 1008.59 1007.85 1007.06 1006.55 1006.34 1006.20 1006.01 1005.89 1006.19 1006.71 1006.94 1007.06 1007.07 1007.17 1007.33 1007.47 1007.37 1007.10 1007.10 1006.75 1006.95 1007.32 1007.66 1007.87 1008.15 1008.47 1008.16 1008.07 1007.95 1008.11 1008.17 1008.75 1009.38 1009.57 1009.58 1009.59 1009.77 1009.80 1009.86
1011.35 1010.82 1010.58 1010.00 1009.52 1009.08 1008.76 1008.27 1007.34 1006.76 1006.56 1006.46 1006.35 1006.43 1006.47 1006.92 1007.26 1007.38 1007.52 1007.49 1007.64 1007.81 1007.81 1007.49 1007.28 1007.81 1007.89 1008.10 1008.24 1008.21 1008.21 1008.41 1008.37 1008.41 1008.52 1008.28 1009.03 1009.34 1010.11 1010.59 1010.57 1010.50 1010.59 1010.48 1010.48
1011.91 1011.37 1011.00 1010.31 1009.73 1009.17 1008.89 1008.16 1007.65 1007.37 1007.14 1006.77 1006.63 1007.10 1007.17 1007.24 1007.41 1007.61 1007.92 1008.13 1008.16 1008.04 1008.27 1008.40 1008.32 1008.57 1008.41 1008.53 1008.73 1008.68 1008.62 1008.68 1008.84 1009.10 1009.28 1009.39 1009.48 1010.53 1011.00 1011.24 1011.25 1011.32 1011.27 1011.25 1011.26
1012.97 1012.34 1011.36 1010.75 1009.89 1009.25 1008.79 1008.41 1007.95 1007.70 1007.80 1007.49 1007.51 1007.55 1007.92 1008.31 1008.37 1008.56 1008.70 1008.91 1009.15 1009.17 1009.14 1009.21 1009.11 1009.30 1008.96 1009.46 1009.41 1009.25 1008.96 1009.06 1009.19 1009.70 1009.88 1009.81 1010.31 1011.13 1011.53 1011.81 1011.98 1011.96 1011.96 1011.87 1011.83
Wind_Speed
11 10 11 11 12 12 12 12 13 14 14 15 15 15 14 15 16 3 5 4 1 5 6 8 4 6 3 3 1 1 2 1 0 2 2 7 4 3 3 5 2 2 3 6 21
11 11 11 11 11 12 13 12 13 14 15 15 16 15 14 14 4 5 7 5 3 3 4 6 6 3 3 3 2 1 0 3 2 2 3 6 4 7 5 5 4 5 9 18 21
12 11 10 11 11 11 12 13 13 13 15 16 16 15 14 11 4 1 7 6 5 3 0 2 3 1 3 0 2 1 2 3 2 4 4 4 3 4 3 4 8 9 16 20 21
12 11 10 10 11 11 12 12 13 13 14 15 16 16 17 4 4 1 4 5 5 2 0 3 4 3 3 2 2 3 2 4 1 4 5 4 5 4 7 1 2 12 19 21 21
12 11 10 11 11 11 11 12 13 13 14 14 15 15 5 1 5 1 3 2 2 1 2 2 7 3 4 4 3 3 6 2 1 5 3 6 8 5 9 5 9 16 20 20 19
12 11 10 10 10 11 11 12 13 13 13 14 14 14 3 3 2 3 5 3 2 1 2 2 4 2 2 3 3 5 7 11 3 6 5 6 2 5 2 10 13 16 18 19 20
13 11 10 10 10 11 11 12 13 13 13 12 11 5 2 8 1 6 4 2 1 1 1 1 1 3 2 2 4 5 5 6 4 2 4 3 6 11 4 12 14 15 14 16 18
13 11 10 10 10 10 11 12 13 13 11 9 6 2 7 3 6 9 2 1 2 2 1 1 1 2 3 3 2 4 2 4 4 1 1 6 14 5 8 13 14 16 15 15 18
12 12 10 9 9 10 11 13 13 10 6 5 2 2 6 8 3 3 2 2 2 3 1 4 3 4 1 3 2 6 2 4 7 3 1 7 12 1 4 11 14 16 16 15 15
13 11 9 8 8 9 12 11 6 6 2 3 2 3 4 1 3 3 1 1 0 3 3 5 4 2 2 5 5 7 4 4 5 3 1 8 17 12 5 12 16 17 16 16 17
13 11 9 6 6 7 7 3 3 3 2 4 1 2 3 6 2 3 2 5 1 7 2 3 2 2 4 1 3 5 4 6 4 4 3 7 13 17 7 13 14 14 16 17 20
15 12 9 5 4 5 2 3 1 3 3 7 5 7 6 3 1 2 3 3 2 4 1 2 2 2 3 1 2 2 3 5 9 2 2 8 13 11 3 9 12 13 16 19 15
14 11 8 3 3 2 2 3 2 1 2 1 4 4 2 7 4 7 5 3 4 4 2 2 1 4 1 2 5 3 3 4 5 6 2 9 5 7 4 3 4 9 13 17 17
14 12 6 3 2 2 4 2 4 4 1 4 3 2 5 3 3 1 2 2 2 3 5 5 1 3 4 5 1 3 4 7 7 5 5 5 4 3 8 5 10 10 8 12 15
15 11 6 4 1 4 3 5 6 4 4 5 4 2 0 2 3 3 1 2 5 5 5 3 2 1 5 4 4 2 2 1 2 3 3 4 4 4 7 8 16 13 10 7 12
15 11 2 2 2 4 5 3 3 4 4 5 3 5 5 1 2 3 2 5 2 3 1 7 1 4 4 1 4 2 3 2 2 1 1 4 5 3 7 8 14 14 13 12 7
17 7 8 2 1 3 3 2 2 1 1 6 5 6 5 5 4 3 8 8 5 3 4 2 5 3 3 3 3 4 2 1 2 1 3 2 4 3 8 8 10 14 13 10 4
13 6 6 4 3 5 3 2 1 1 1 2 4 8 6 6 3 3 6 7 3 3 1 3 6 2 4 5 3 2 2 1 3 4 4 1 3 3 6 9 8 6 4 3 5
4 2 2 2 9 3 2 2 1 2 2 1 4 5 4 4 2 3 6 6 8 12 6 4 2 2 7 1 3 5 2 3 5 1 4 1 3 7 4 5 6 6 4 1 5
2 2 2 3 8 3 1 2 3 4 3 2 4 2 8 7 8 7 7 3 4 11 11 2 2 1 1 2 12 2 8 3 0 3 7 3 4 6 4 2 3 4 3 4 6
2 2 4 4 3 1 2 4 5 5 6 4 3 4 4 5 3 4 4 2 1 2 9 5 4 3 2 4 0 4 4 5 2 3 5 6 2 4 5 3 6 6 6 8 6
0 3 3 3 2 1 3 3 2 4 1 3 1 3 3 3 3 2 4 2 5 5 7 6 3 3 1 4 1 2 2 3 3 2 1 3 3 6 1 4 8 7 5 8 7
2 2 2 3 3 2 2 3 4 3 3 4 2 3 3 4 4 1 2 2 6 3 6 9 3 4 4 3 3 4 3 2 4 1 5 4 3 3 2 6 7 8 5 6 8
1 4 1 2 1 2 1 2 3 1 0 1 2 2 3 3 5 4 2 3 4 3 5 2 3 3 6 2 2 4 6 5 5 4 3 8 10 7 4 9 9 7 4 6 7
3 2 2 5 5 4 1 2 3 1 1 3 3 4 2 3 2 3 1 0 2 4 2 3 2 2 1 1 3 3 6 8 8 5 8 11 6 8 8 10 9 4 3 5 8
1 0 1 2 1 5 3 3 3 2 3 2 4 3 2 3 1 4 2 0 2 3 3 4 1 0 2 2 4 6 7 8 8 5 8 9 10 3 4 1 3 5 5 7 7
2 0 3 1 2 4 3 1 1 2 6 5 7 7 9 4 3 5 5 5 4 4 3 2 5 4 7 3 2 9 10 9 4 2 4 7 3 4 2 4 3 4 5 5 6
Wind_Direction
327 326 324 325 327 328 328 329 328 326 325 324 325 324 321 320 306 190 267 265 186 163 284 323 31 23 113 90 73 93 60 24 113 196 316 137 138 161 129 146 137 77 96 123 146
324 322 321 320 321 322 323 326 326 325 325 324 324 322 320 328 286 255 288 264 190 301 306 346 339 355 82 64 63 13 303 201 205 204 270 154 168 184 190 172 172 155 102 136 148
320 318 316 315 315 316 317 319 324 324 324 323 323 321 318 318 274 83 312 263 241 240 338 320 291 288 70 15 79 105 308 307 199 212 245 145 159 202 208 215 200 189 149 155 161
320 316 311 309 309 309 311 314 319 321 321 321 322 320 318 274 150 168 249 196 182 152 307 322 339 44 56 56 355 279 226 218 351 182 153 181 151 221 227 34 330 160 159 163 172
323 315 309 305 304 305 307 309 313 317 317 318 322 324 319 270 250 71 227 250 142 95 37 21 33 13 32 350 358 312 339 284 235 168 191 161 206 223 242 228 121 145 159 173 181
326 318 309 303 301 301 303 305 307 312 314 317 323 317 298 259 148 147 340 233 354 29 336 19 22 339 87 350 351 327 308 295 262 187 213 222 229 188 64 143 137 161 175 179 187
331 320 310 303 299 299 301 303 305 309 310 313 318 317 283 247 84 311 301 303 323 244 16 77 107 351 349 346 338 313 318 324 273 214 219 205 254 233 218 163 160 178 186 189 196
337 324 311 302 298 299 300 299 302 302 301 305 307 280 257 271 320 298 271 227 140 200 247 4 219 88 10 329 14 25 48 339 2 33 359 202 273 275 206 171 182 183 186 200 205
338 331 315 301 297 297 299 298 297 295 284 278 250 291 264 317 274 339 238 285 15 77 35 87 62 43 45 3 57 23 345 4 328 3 64 219 275 268 195 204 196 193 193 199 214
342 338 321 306 297 301 297 284 285 297 188 194 253 254 246 96 316 325 132 289 113 163 98 43 35 33 59 24 7 317 344 322 292 322 236 246 260 260 200 212 217 200 200 202 211
344 341 333 307 301 305 322 165 178 158 216 215 197 283 291 309 259 191 172 148 161 62 89 45 263 58 332 63 304 291 288 304 263 278 279 276 259 272 233 223 230 211 210 213 214
345 344 336 319 289 308 277 216 175 25 269 224 255 280 258 264 274 181 196 163 108 120 158 223 226 160 279 6 265 239 285 284 289 293 231 283 281 300 260 260 249 221 218 222 218
343 342 335 305 300 250 234 223 92 258 262 230 199 235 224 180 188 172 170 140 106 129 118 226 339 256 208 330 301 193 237 258 282 315 218 309 297 7 339 312 313 233 224 227 226
343 340 332 295 247 158 227 134 293 223 194 159 211 201 161 212 142 172 96 124 95 185 175 248 262 236 303 307 211 302 216 264 285 279 322 343 324 9 345 338 41 21 239 240 233
341 338 329 266 3 205 85 333 134 198 134 146 148 79 84 216 114 115 278 107 166 156 203 148 194 279 297 273 201 287 334 343 314 283 273 39 281 74 348 344 356 348 351 291 247
336 317 261 195 232 264 327 170 223 233 112 156 126 158 152 67 68 83 98 74 85 178 238 269 202 259 242 1 214 112 203 82 109 312 197 5 324 51 6 324 321 329 334 335 298
334 294 184 216 138 347 319 194 234 252 302 154 161 169 164 160 176 147 170 183 200 183 234 294 243 230 212 223 175 199 243 329 177 32 16 336 253 353 324 330 313 314 328 353 72
347 137 220 242 310 332 182 219 223 84 219 96 123 132 181 157 161 124 145 188 173 159 168 264 153 229 161 241 157 106 331 48 352 335 348 177 279 46 316 323 330 330 345 60 139
347 204 234 260 210 295 195 226 290 191 328 27 128 135 149 166 166 171 198 205 201 193 220 202 139 58 62 111 284 143 136 24 119 117 256 5 252 256 274 326 4 10 5 222 186
222 190 39 42 160 206 106 264 259 233 291 212 192 198 172 159 179 200 183 155 214 201 220 185 230 61 43 202 59 344 130 185 99 270 291 236 260 277 215 243 31 34 339 265 230
220 121 26 116 211 116 203 250 272 255 237 219 188 135 120 144 200 182 165 119 306 120 198 170 238 150 239 21 78 156 151 73 107 324 298 292 289 344 273 311 334 348 330 302 324
307 109 55 233 130 2 200 215 301 279 218 263 236 85 107 113 121 149 175 286 352 177 178 176 176 213 75 18 354 324 92 225 267 199 118 301 259 344 318 331 322 319 334 330 332
77 87 125 283 178 197 261 267 257 286 355 355 74 29 54 103 114 110 138 71 15 170 173 178 187 147 147 161 211 235 132 104 103 142 199 260 267 357 284 298 315 296 324 354 349
165 124 97 60 18 149 14 298 284 7 101 39 82 129 122 86 39 128 129 43 27 83 51 129 132 235 272 10 95 180 176 186 247 235 253 248 280 248 289 302 300 284 312 22 25
6 95 0 174 199 191 201 310 295 211 51 30 98 56 96 114 102 95 85 357 94 14 47 331 153 218 190 182 206 243 211 195 222 261 252 314 257 287 327 318 309 316 18 49 40
21 187 128 87 108 161 161 206 230 145 333 43 109 90 78 117 35 161 156 48 17 25 50 1 129 193 263 211 241 254 251 242 242 234 253 267 271 269 343 83 101 64 56 49 28
21 262 285 36 127 178 167 313 215 164 51 56 111 97 88 70 60 48 60 72 56 18 20 327 158 182 250 1 292 258 256 249 234 219 279 254 5 160 132 103 60 54 41 39 2